{"data":{"norad_id":57335,"intl_designator":"2023-099H","name":"STARLINK-6316","alt_names":[],"object_type":"PAYLOAD","status":"ACTIVE","operator":null,"country":"US","launch_date":"2023-07-16","launch_site_code":"AFETR","launch_vehicle":null,"mission":null,"orbit_class":"UNKNOWN","rcs_meters":null,"size_class":null,"mass_kg":null,"dimensions":null,"purposes":["comms"],"wikipedia_slug":null,"has_3d_model":false,"image_url":null,"decayed_at":null,"tle_current":{"epoch":"2026-09-20T22:32:28.817952Z","epoch_age_seconds":86363,"freshness":"FRESH","line1":"1 57335U 23099H   26263.93922243 -.00000138  00000+0  44946-5 0  9993","line2":"2 57335  43.0030 226.6463 0000681 278.0412  82.0362 15.27574742175977","mean_motion":15.27574742,"eccentricity":6.81e-5,"inclination_deg":43.003,"raan_deg":226.6463,"arg_perigee_deg":278.0412,"mean_anomaly_deg":82.0362,"bstar":4.4946e-6,"rev_number":17597,"period_min":94.267073185215,"perigee_km":482.59759258304,"apogee_km":483.5320882737,"semimajor_km":6861.2018404284,"source":"CELESTRAK","updated_at":"2026-09-21T09:00:33.597187Z"}}}